This is the latest recevied weather packets stored in our database for station/object W4UWO. If no packets are shown the sender has not sent any weather packets the latest 10 day(s).
| Time | Temp. | Humidity | Pressure | Rain* | Wind** | Luminosity | Snow |
|---|---|---|---|---|---|---|---|
| 1788238586 | 25° C | 84% | 1019.9 hPa | 0 mm | - | 0 W/m² | - |
| 1788238282 | 25° C | 85% | 1019.7 hPa | 0 mm | - | 0 W/m² | - |
| 1788237978 | 25° C | 85% | 1019.8 hPa | 0 mm | - | 0 W/m² | - |
| 1788237674 | 25° C | 84% | 1019.9 hPa | 0 mm | - | 0 W/m² | - |
| 1788237369 | 25.56° C | 83% | 1019.8 hPa | 0 mm | - | 0 W/m² | - |
| 1788237064 | 25° C | 84% | 1019.9 hPa | 0 mm | - | 0 W/m² | - |
| 1788236763 | 25° C | 84% | 1019.9 hPa | 0 mm | - | 0 W/m² | - |
| 1788236459 | 25° C | 84% | 1019.7 hPa | 0 mm | - | 0 W/m² | - |
| 1788236154 | 25.56° C | 83% | 1019.7 hPa | 0 mm | - | 0 W/m² | - |
| 1788235854 | 25.56° C | 82% | 1019.9 hPa | 0 mm | - | 0 W/m² | - |
| 1788235554 | 26.11° C | 81% | 1019.7 hPa | 0 mm | - | 0 W/m² | - |
| 1788235249 | 26.11° C | 81% | 1019.8 hPa | 0 mm | - | 0 W/m² | - |
| 1788234947 | 26.11° C | 82% | 1019.8 hPa | 0 mm | - | 0 W/m² | - |
| 1788234646 | 26.11° C | 82% | 1019.7 hPa | 0 mm | - | 0 W/m² | - |
| 1788234345 | 25.56° C | 83% | 1019.7 hPa | 0 mm | - | 0 W/m² | - |
| 1788234045 | 25.56° C | 82% | 1019.6 hPa | 0 mm | - | 0 W/m² | - |
| 1788233746 | 25.56° C | 82% | 1019.7 hPa | 0 mm | - | 0 W/m² | - |
| 1788233439 | 26.11° C | 81% | 1019.8 hPa | 0 mm | - | 0 W/m² | - |
| 1788233138 | 26.67° C | 80% | 1019.7 hPa | 0 mm | - | 0 W/m² | - |
| 1788232833 | 26.67° C | 79% | 1019.5 hPa | 0 mm | - | 0 W/m² | - |
| 1788232528 | 26.67° C | 78% | 1019.4 hPa | 0 mm | - | 0 W/m² | - |
| 1788232225 | 26.67° C | 79% | 1019.5 hPa | 0 mm | - | 0 W/m² | - |
| 1788231924 | 26.67° C | 77% | 1019.7 hPa | 0 mm | - | 0 W/m² | - |
| 1788231619 | 27.22° C | 75% | 1019.5 hPa | 0 mm | - | 0 W/m² | - |
| 1788231313 | 26.67° C | 75% | 1019.6 hPa | 0 mm | - | 0 W/m² | - |
* Rain latest hour (hover to see other rain measurements)
** Current wind speed in m/s (hover to see current wind gust speed)